Peotone Weather
Station Historical Data
 
Daily Summary for November 22, 2014 Units:  English    Metric   Both
« Previous Day
Next Day »
Daily Weekly Monthly Yearly Custom
  Current: High: Low: Average:
Temperature: 50.3 °F 51.6 °F 33.1 °F 40.9 °F
Dew Point: 46.3 °F 48.3 °F 20.6 °F 37.5 °F
Humidity: 86% 94% 57% 88%
Wind Speed: 8.1mph 13.8mph 0.0mph 8mph
Wind Gust: 13.8mph 20.7mph - -
WindSSW - - South
Pressure: 29.92 in 30.24 in 29.92 in -
Precipitation: 0.25 in      
Historical Graphs
 
 
Tabular Data for November 22, 2014
Time Temperature Dew Point Pressure Wind Wind Speed Wind Gust Humidity Rainfall Rate (Hourly) solar Conditions
00:01 34.2 °F 20.6 °F 30.24 in SSE 8.1 mph 16.1 mph 57% 0.00 in 0.00 W/m2
00:06 34.2 °F 20.6 °F 30.24 in South 8.1 mph 14.9 mph 57% 0.00 in 0.00 W/m2
00:11 34.2 °F 21.0 °F 30.24 in SSE 5.8 mph 18.4 mph 58% 0.00 in 0.00 W/m2
00:16 34.2 °F 21.4 °F 30.23 in SSE 8.1 mph 12.6 mph 59% 0.00 in 0.00 W/m2
00:21 34.2 °F 21.4 °F 30.23 in South 5.8 mph 12.6 mph 59% 0.00 in 0.00 W/m2
00:26 34.3 °F 21.5 °F 30.23 in SSE 10.3 mph 13.8 mph 59% 0.00 in 0.00 W/m2
00:31 34.4 °F 21.6 °F 30.22 in SSE 9.2 mph 13.8 mph 59% 0.00 in 0.00 W/m2
00:36 34.4 °F 22.0 °F 30.21 in SSE 5.8 mph 13.8 mph 60% 0.00 in 0.00 W/m2
00:41 34.5 °F 22.1 °F 30.21 in SSE 5.8 mph 13.8 mph 60% 0.00 in 0.00 W/m2
00:46 34.4 °F 22.7 °F 30.21 in South 11.5 mph 13.8 mph 62% 0.00 in 0.00 W/m2
00:51 34.3 °F 24.1 °F 30.21 in South 10.3 mph 10.3 mph 66% 0.00 in 0.00 W/m2
00:56 33.8 °F 25.1 °F 30.20 in SSE 8.1 mph 9.2 mph 70% 0.00 in 0.00 W/m2
01:02 33.5 °F 25.5 °F 30.21 in South 12.6 mph 12.6 mph 72% 0.01 in 0.00 W/m2
01:07 33.3 °F 26.6 °F 30.21 in SSE 10.3 mph 14.9 mph 76% 0.02 in 0.00 W/m2
01:12 33.2 °F 27.1 °F 30.21 in South 13.8 mph 17.2 mph 78% 0.04 in 0.00 W/m2
01:17 33.2 °F 27.7 °F 30.21 in SSE 8.1 mph 12.6 mph 80% 0.05 in 0.00 W/m2
01:22 33.2 °F 28.0 °F 30.21 in South 8.1 mph 10.3 mph 81% 0.06 in 0.00 W/m2
01:27 33.3 °F 28.4 °F 30.20 in SSE 6.9 mph 17.2 mph 82% 0.07 in 0.00 W/m2
01:32 33.3 °F 29.0 °F 30.20 in SSE 9.2 mph 9.2 mph 84% 0.09 in 0.00 W/m2
01:37 33.3 °F 29.3 °F 30.20 in South 10.3 mph 12.6 mph 85% 0.09 in 0.00 W/m2
01:43 33.2 °F 29.5 °F 30.21 in South 6.9 mph 9.2 mph 86% 0.09 in 0.00 W/m2
01:48 33.2 °F 29.5 °F 30.21 in SSE 12.6 mph 12.6 mph 86% 0.10 in 0.00 W/m2
01:53 33.1 °F 29.7 °F 30.20 in SSE 5.8 mph 10.3 mph 87% 0.10 in 0.00 W/m2
01:58 33.1 °F 29.9 °F 30.20 in South 8.1 mph 14.9 mph 88% 0.11 in 0.00 W/m2
02:03 33.1 °F 29.9 °F 30.20 in SSE 8.1 mph 8.1 mph 88% 0.10 in 0.00 W/m2
02:08 33.1 °F 30.2 °F 30.20 in South 6.9 mph 11.5 mph 89% 0.10 in 0.00 W/m2
02:13 33.1 °F 30.2 °F 30.20 in SSE 4.6 mph 9.2 mph 89% 0.08 in 0.00 W/m2
02:19 33.1 °F 30.2 °F 30.19 in South 5.8 mph 9.2 mph 89% 0.07 in 0.00 W/m2
02:24 33.1 °F 30.5 °F 30.19 in SSE 5.8 mph 10.3 mph 90% 0.09 in 0.00 W/m2
02:29 33.2 °F 30.6 °F 30.19 in South 11.5 mph 13.8 mph 90% 0.09 in 0.00 W/m2
02:34 33.2 °F 30.9 °F 30.19 in South 5.8 mph 13.8 mph 91% 0.09 in 0.00 W/m2
02:39 33.2 °F 30.9 °F 30.19 in SSW 8.1 mph 10.3 mph 91% 0.09 in 0.00 W/m2
02:44 33.2 °F 30.9 °F 30.19 in SSW 10.3 mph 10.3 mph 91% 0.09 in 0.00 W/m2
02:49 33.2 °F 30.9 °F 30.18 in SSE 4.6 mph 10.3 mph 91% 0.08 in 0.00 W/m2
02:54 33.3 °F 31.2 °F 30.18 in South 12.6 mph 20.7 mph 92% 0.08 in 0.00 W/m2
03:00 33.2 °F 31.1 °F 30.17 in South 6.9 mph 12.6 mph 92% 0.08 in 0.00 W/m2
03:05 33.2 °F 31.1 °F 30.18 in South 5.8 mph 10.3 mph 92% 0.08 in 0.00 W/m2
03:10 33.2 °F 31.1 °F 30.17 in SSE 3.4 mph 12.6 mph 92% 0.08 in 0.00 W/m2
03:15 33.1 °F 31.0 °F 30.17 in SSE 5.8 mph 10.3 mph 92% 0.08 in 0.00 W/m2
03:20 33.1 °F 31.0 °F 30.17 in South 6.9 mph 10.3 mph 92% 0.08 in 0.00 W/m2
03:25 33.1 °F 31.0 °F 30.17 in South 6.9 mph 9.2 mph 92% 0.06 in 0.00 W/m2
03:30 33.1 °F 31.0 °F 30.17 in South 5.8 mph 10.3 mph 92% 0.04 in 0.00 W/m2
03:36 33.1 °F 31.3 °F 30.16 in SSE 5.8 mph 12.6 mph 93% 0.03 in 0.00 W/m2
03:41 33.1 °F 31.3 °F 30.16 in South 8.1 mph 10.3 mph 93% 0.01 in 0.00 W/m2
03:46 33.2 °F 31.4 °F 30.16 in South 6.9 mph 12.6 mph 93% 0.01 in 0.00 W/m2
03:51 33.2 °F 31.4 °F 30.16 in SSE 5.8 mph 8.1 mph 93% 0.02 in 0.00 W/m2
03:56 33.3 °F 31.5 °F 30.16 in South 2.3 mph 10.3 mph 93% 0.02 in 0.00 W/m2
04:01 33.3 °F 31.5 °F 30.15 in South 6.9 mph 12.6 mph 93% 0.02 in 0.00 W/m2
04:06 33.4 °F 31.6 °F 30.15 in SSE 8.1 mph 11.5 mph 93% 0.02 in 0.00 W/m2
04:11 33.5 °F 31.7 °F 30.15 in South 9.2 mph 10.3 mph 93% 0.01 in 0.00 W/m2
04:16 33.6 °F 31.8 °F 30.15 in SSE 8.1 mph 8.1 mph 93% 0.01 in 0.00 W/m2
04:21 33.6 °F 31.8 °F 30.14 in South 9.2 mph 11.5 mph 93% 0.01 in 0.00 W/m2
04:27 33.7 °F 31.9 °F 30.14 in SSW 8.1 mph 10.3 mph 93% 0.02 in 0.00 W/m2
04:32 33.7 °F 32.2 °F 30.14 in South 8.1 mph 11.5 mph 94% 0.03 in 0.00 W/m2
04:37 33.8 °F 32.3 °F 30.14 in South 5.8 mph 11.5 mph 94% 0.04 in 0.00 W/m2
04:42 33.8 °F 32.3 °F 30.14 in South 8.1 mph 10.3 mph 94% 0.05 in 0.00 W/m2
04:47 33.8 °F 32.3 °F 30.13 in South 6.9 mph 11.5 mph 94% 0.06 in 0.00 W/m2
04:52 33.8 °F 32.3 °F 30.13 in South 5.8 mph 9.2 mph 94% 0.05 in 0.00 W/m2
04:57 33.9 °F 32.4 °F 30.14 in SSE 6.9 mph 6.9 mph 94% 0.05 in 0.00 W/m2
05:02 33.9 °F 32.4 °F 30.13 in South 9.2 mph 11.5 mph 94% 0.05 in 0.00 W/m2
05:08 34.1 °F 32.6 °F 30.13 in SSE 9.2 mph 10.3 mph 94% 0.05 in 0.00 W/m2
05:13 34.2 °F 32.7 °F 30.13 in South 8.1 mph 11.5 mph 94% 0.05 in 0.00 W/m2
05:18 34.3 °F 32.8 °F 30.12 in South 6.9 mph 12.6 mph 94% 0.05 in 0.00 W/m2
05:23 34.5 °F 33.0 °F 30.12 in SSW 6.9 mph 12.6 mph 94% 0.05 in 0.00 W/m2
05:28 34.6 °F 33.0 °F 30.12 in South 2.3 mph 11.5 mph 94% 0.04 in 0.00 W/m2
05:33 34.7 °F 33.2 °F 30.12 in South 8.1 mph 10.3 mph 94% 0.03 in 0.00 W/m2
05:38 34.9 °F 33.3 °F 30.12 in SSE 10.3 mph 13.8 mph 94% 0.02 in 0.00 W/m2
05:43 35.0 °F 33.5 °F 30.12 in Calm   9.2 mph 94% 0.01 in 0.00 W/m2
05:49 35.2 °F 33.4 °F 30.12 in SSW 6.9 mph 8.1 mph 93% 0.00 in 0.00 W/m2
05:54 35.3 °F 33.5 °F 30.11 in South 3.4 mph 16.1 mph 93% 0.00 in 0.00 W/m2
05:59 35.6 °F 33.8 °F 30.11 in SSE 6.9 mph 12.6 mph 93% 0.00 in 0.00 W/m2
06:04 35.8 °F 34.0 °F 30.11 in South 11.5 mph 12.6 mph 93% 0.00 in 0.00 W/m2
06:09 35.9 °F 33.8 °F 30.11 in South 8.1 mph 13.8 mph 92% 0.00 in 0.00 W/m2
06:14 36.0 °F 33.9 °F 30.11 in SSE 8.1 mph 14.9 mph 92% 0.00 in 0.00 W/m2
06:19 36.1 °F 34.0 °F 30.11 in South 8.1 mph 12.6 mph 92% 0.00 in 0.00 W/m2
06:25 36.2 °F 34.1 °F 30.11 in SSW 8.1 mph 12.6 mph 92% 0.00 in 0.00 W/m2
06:30 36.2 °F 34.1 °F 30.11 in South 8.1 mph 9.2 mph 92% 0.00 in 0.00 W/m2
06:35 36.4 °F 34.3 °F 30.10 in SSW 9.2 mph 14.9 mph 92% 0.00 in 0.00 W/m2
06:40 36.6 °F 34.2 °F 30.10 in SSW 5.8 mph 13.8 mph 91% 0.00 in 0.00 W/m2
06:45 36.7 °F 34.3 °F 30.10 in SW 5.8 mph 12.6 mph 91% 0.00 in 0.00 W/m2
06:50 36.9 °F 34.5 °F 30.10 in SW 8.1 mph 13.8 mph 91% 0.00 in 0.00 W/m2
06:55 37.0 °F 34.6 °F 30.10 in South 6.9 mph 11.5 mph 91% 0.00 in 0.00 W/m2
07:00 37.0 °F 34.6 °F 30.10 in SSW 9.2 mph 12.6 mph 91% 0.00 in 0.00 W/m2
07:06 37.1 °F 34.7 °F 30.10 in South 5.8 mph 13.8 mph 91% 0.00 in 0.00 W/m2
07:11 37.2 °F 34.8 °F 30.09 in South 9.2 mph 13.8 mph 91% 0.00 in 7.00 W/m2
07:16 37.3 °F 34.9 °F 30.09 in South 10.3 mph 16.1 mph 91% 0.00 in 9.00 W/m2
07:21 37.5 °F 35.1 °F 30.09 in SSW 9.2 mph 16.1 mph 91% 0.00 in 12.00 W/m2
07:26 37.6 °F 34.9 °F 30.09 in South 5.8 mph 12.6 mph 90% 0.00 in 11.00 W/m2
07:31 37.7 °F 35.0 °F 30.08 in SSW 8.1 mph 9.2 mph 90% 0.00 in 16.00 W/m2
07:36 37.9 °F 35.2 °F 30.08 in SSW 8.1 mph 9.2 mph 90% 0.00 in 16.00 W/m2
07:41 38.0 °F 35.3 °F 30.08 in South 6.9 mph 6.9 mph 90% 0.00 in 21.00 W/m2
07:46 38.1 °F 35.4 °F 30.08 in SSW 6.9 mph 8.1 mph 90% 0.00 in 16.00 W/m2
07:52 38.2 °F 35.2 °F 30.08 in SW 4.6 mph 12.6 mph 89% 0.00 in 21.00 W/m2
07:57 38.2 °F 35.2 °F 30.08 in South 9.2 mph 9.2 mph 89% 0.00 in 25.00 W/m2
08:02 38.4 °F 35.5 °F 30.08 in South 6.9 mph 6.9 mph 89% 0.00 in 26.00 W/m2
08:07 38.4 °F 35.5 °F 30.09 in South 6.9 mph 6.9 mph 89% 0.00 in 23.00 W/m2
08:12 38.5 °F 35.5 °F 30.08 in SW 4.6 mph 4.6 mph 89% 0.00 in 25.00 W/m2
08:17 38.6 °F 35.6 °F 30.08 in SSW 8.1 mph 9.2 mph 89% 0.00 in 19.00 W/m2
08:22 38.7 °F 35.7 °F 30.08 in South 9.2 mph 10.3 mph 89% 0.00 in 18.00 W/m2
08:27 38.8 °F 35.8 °F 30.08 in South 10.3 mph 10.3 mph 89% 0.00 in 21.00 W/m2
08:32 38.9 °F 35.9 °F 30.08 in SSW 8.1 mph 8.1 mph 89% 0.00 in 26.00 W/m2
08:37 39.0 °F 36.0 °F 30.07 in South 4.6 mph 8.1 mph 89% 0.00 in 26.00 W/m2
08:43 39.1 °F 36.1 °F 30.07 in South 5.8 mph 12.6 mph 89% 0.00 in 35.00 W/m2
08:48 39.3 °F 36.3 °F 30.07 in South 6.9 mph 10.3 mph 89% 0.00 in 39.00 W/m2
08:53 39.5 °F 36.8 °F 30.07 in SSW 8.1 mph 13.8 mph 90% 0.00 in 40.00 W/m2
08:58 39.7 °F 36.7 °F 30.07 in South 11.5 mph 13.8 mph 89% 0.00 in 30.00 W/m2
09:03 39.9 °F 36.9 °F 30.07 in SSW 8.1 mph 11.5 mph 89% 0.00 in 19.00 W/m2
09:08 40.1 °F 37.1 °F 30.07 in South 10.3 mph 12.6 mph 89% 0.00 in 23.00 W/m2
09:13 40.2 °F 37.2 °F 30.07 in South 9.2 mph 10.3 mph 89% 0.00 in 19.00 W/m2
09:19 40.3 °F 37.3 °F 30.06 in SSW 10.3 mph 10.3 mph 89% 0.00 in 40.00 W/m2
09:24 40.5 °F 37.5 °F 30.07 in SW 5.8 mph 11.5 mph 89% 0.00 in 42.00 W/m2
09:29 40.6 °F 37.6 °F 30.06 in SSW 10.3 mph 12.6 mph 89% 0.00 in 47.00 W/m2
09:34 40.7 °F 38.0 °F 30.06 in South 4.6 mph 10.3 mph 90% 0.00 in 40.00 W/m2
09:39 40.8 °F 38.1 °F 30.06 in South 5.8 mph 13.8 mph 90% 0.00 in 46.00 W/m2
09:44 41.0 °F 38.3 °F 30.05 in SSW 8.1 mph 10.3 mph 90% 0.00 in 49.00 W/m2
09:49 41.3 °F 38.6 °F 30.05 in SSW 5.8 mph 13.8 mph 90% 0.00 in 90.00 W/m2
09:54 41.6 °F 38.9 °F 30.05 in South 4.6 mph 13.8 mph 90% 0.00 in 81.00 W/m2
10:00 41.9 °F 39.2 °F 30.05 in South 6.9 mph 11.5 mph 90% 0.00 in 77.00 W/m2
10:05 42.2 °F 39.5 °F 30.05 in SSW 6.9 mph 10.3 mph 90% 0.00 in 53.00 W/m2
10:10 42.4 °F 39.7 °F 30.05 in SSW 9.2 mph 9.2 mph 90% 0.00 in 58.00 W/m2
10:15 42.5 °F 39.8 °F 30.05 in SSW 5.8 mph 11.5 mph 90% 0.00 in 46.00 W/m2
10:20 42.7 °F 40.0 °F 30.05 in South 10.3 mph 10.3 mph 90% 0.00 in 47.00 W/m2
10:25 42.8 °F 40.1 °F 30.04 in South 6.9 mph 13.8 mph 90% 0.00 in 32.00 W/m2
10:30 42.9 °F 40.2 °F 30.04 in SSW 8.1 mph 12.6 mph 90% 0.00 in 40.00 W/m2
10:35 43.0 °F 40.3 °F 30.04 in South 9.2 mph 11.5 mph 90% 0.00 in 47.00 W/m2
10:41 43.1 °F 40.4 °F 30.04 in SW 11.5 mph 13.8 mph 90% 0.00 in 44.00 W/m2
10:46 43.1 °F 40.4 °F 30.03 in SSW 10.3 mph 13.8 mph 90% 0.00 in 47.00 W/m2
10:51 43.2 °F 40.8 °F 30.03 in South 8.1 mph 12.6 mph 91% 0.00 in 42.00 W/m2
10:56 43.3 °F 40.8 °F 30.02 in SSW 11.5 mph 13.8 mph 91% 0.00 in 46.00 W/m2
11:01 43.4 °F 41.0 °F 30.02 in SW 8.1 mph 12.6 mph 91% 0.00 in 46.00 W/m2
11:06 43.6 °F 41.2 °F 30.02 in SSW 10.3 mph 10.3 mph 91% 0.00 in 60.00 W/m2
11:11 43.7 °F 41.2 °F 30.01 in SSW 3.4 mph 13.8 mph 91% 0.00 in 46.00 W/m2
11:16 43.8 °F 41.3 °F 30.01 in SSW 10.3 mph 12.6 mph 91% 0.00 in 65.00 W/m2
11:21 44.0 °F 41.5 °F 30.00 in SSW 6.9 mph 6.9 mph 91% 0.00 in 93.00 W/m2
11:26 44.3 °F 41.8 °F 30.00 in South 10.3 mph 14.9 mph 91% 0.00 in 77.00 W/m2
11:32 44.5 °F 41.8 °F 30.00 in South 6.9 mph 9.2 mph 90% 0.00 in 83.00 W/m2
11:37 44.7 °F 42.0 °F 30.00 in SSW 9.2 mph 11.5 mph 90% 0.00 in 70.00 W/m2
11:42 44.8 °F 42.0 °F 30.00 in South 9.2 mph 16.1 mph 90% 0.00 in 67.00 W/m2
11:47 45.0 °F 42.2 °F 30.00 in SSW 10.3 mph 10.3 mph 90% 0.00 in 74.00 W/m2
11:52 45.1 °F 42.3 °F 29.99 in South 5.8 mph 9.2 mph 90% 0.00 in 53.00 W/m2
11:57 45.2 °F 42.5 °F 29.99 in South 9.2 mph 17.2 mph 90% 0.00 in 86.00 W/m2
12:02 45.5 °F 42.7 °F 29.99 in SW 6.9 mph 10.3 mph 90% 0.00 in 42.00 W/m2
12:07 45.6 °F 42.8 °F 29.98 in South 6.9 mph 9.2 mph 90% 0.00 in 49.00 W/m2
12:12 45.8 °F 43.0 °F 29.98 in South 9.2 mph 10.3 mph 90% 0.00 in 62.00 W/m2
12:18 46.0 °F 43.2 °F 29.98 in SSW 5.8 mph 11.5 mph 90% 0.00 in 62.00 W/m2
12:23 46.2 °F 43.4 °F 29.98 in South 10.3 mph 10.3 mph 90% 0.00 in 62.00 W/m2
12:28 46.4 °F 43.6 °F 29.98 in SSW 5.8 mph 13.8 mph 90% 0.00 in 37.00 W/m2
12:33 46.7 °F 43.9 °F 29.97 in SSW 8.1 mph 12.6 mph 90% 0.00 in 149.00 W/m2
12:38 47.0 °F 44.2 °F 29.97 in SSW 8.1 mph 11.5 mph 90% 0.00 in 116.00 W/m2
12:43 47.4 °F 44.6 °F 29.96 in SSW 9.2 mph 10.3 mph 90% 0.00 in 111.00 W/m2
12:48 47.7 °F 44.9 °F 29.96 in SSW 9.2 mph 10.3 mph 90% 0.00 in 76.00 W/m2
12:54 47.8 °F 45.0 °F 29.96 in South 11.5 mph 11.5 mph 90% 0.00 in 86.00 W/m2
12:59 47.9 °F 44.8 °F 29.95 in SSW 8.1 mph 14.9 mph 89% 0.00 in 83.00 W/m2
13:04 48.0 °F 45.2 °F 29.95 in SW 9.2 mph 14.9 mph 90% 0.00 in 62.00 W/m2
13:09 48.1 °F 45.3 °F 29.95 in South 6.9 mph 11.5 mph 90% 0.00 in 79.00 W/m2
13:14 48.2 °F 45.4 °F 29.95 in SSW 5.8 mph 14.9 mph 90% 0.00 in 84.00 W/m2
13:19 48.2 °F 45.4 °F 29.94 in SSW 10.3 mph 17.2 mph 90% 0.00 in 95.00 W/m2
13:24 48.4 °F 45.6 °F 29.94 in SSW 10.3 mph 12.6 mph 90% 0.00 in 81.00 W/m2
13:29 48.6 °F 45.8 °F 29.94 in SW 10.3 mph 14.9 mph 90% 0.00 in 44.00 W/m2
13:35 48.7 °F 45.9 °F 29.94 in SW 6.9 mph 13.8 mph 90% 0.00 in 84.00 W/m2
13:40 49.0 °F 46.2 °F 29.94 in SW 6.9 mph 12.6 mph 90% 0.00 in 121.00 W/m2
13:45 49.4 °F 46.6 °F 29.94 in SSW 8.1 mph 16.1 mph 90% 0.00 in 79.00 W/m2
13:50 49.6 °F 46.8 °F 29.93 in SSW 9.2 mph 13.8 mph 90% 0.00 in 46.00 W/m2
13:55 49.8 °F 46.7 °F 29.93 in South 8.1 mph 12.6 mph 89% 0.00 in 33.00 W/m2
14:00 49.8 °F 46.7 °F 29.93 in South 12.6 mph 16.1 mph 89% 0.00 in 26.00 W/m2
14:05 49.9 °F 46.8 °F 29.93 in SSW 5.8 mph 13.8 mph 89% 0.00 in 42.00 W/m2
14:10 50.0 °F 47.2 °F 29.93 in South 5.8 mph 12.6 mph 90% 0.00 in 32.00 W/m2
14:16 50.1 °F 47.3 °F 29.93 in SSW 8.1 mph 10.3 mph 90% 0.00 in 40.00 W/m2
14:21 50.3 °F 47.2 °F 29.92 in SSW 6.9 mph 12.6 mph 89% 0.00 in 39.00 W/m2
14:26 50.5 °F 47.4 °F 29.92 in South 5.8 mph 10.3 mph 89% 0.00 in 26.00 W/m2
14:31 50.7 °F 47.9 °F 29.92 in SSW 6.9 mph 14.9 mph 90% 0.00 in 25.00 W/m2
14:36 50.9 °F 47.8 °F 29.92 in SSE 9.2 mph 17.2 mph 89% 0.00 in 21.00 W/m2
14:41 51.1 °F 48.0 °F 29.93 in SSW 12.6 mph 13.8 mph 89% 0.00 in 39.00 W/m2
14:46 51.2 °F 48.1 °F 29.93 in SSW 9.2 mph 12.6 mph 89% 0.00 in 14.00 W/m2
14:51 51.3 °F 48.2 °F 29.92 in SW 8.1 mph 17.2 mph 89% 0.00 in 7.00 W/m2
14:56 51.4 °F 48.3 °F 29.92 in SSW 8.1 mph 13.8 mph 89% 0.00 in 14.00 W/m2
15:01 51.5 °F 48.1 °F 29.92 in SSW 6.9 mph 10.3 mph 88% 0.00 in 26.00 W/m2
15:06 51.5 °F 48.1 °F 29.92 in SW 11.5 mph 12.6 mph 88% 0.00 in 9.00 W/m2
15:12 51.4 °F 48.0 °F 29.92 in South 5.8 mph 9.2 mph 88% 0.00 in 14.00 W/m2
15:17 51.4 °F 48.0 °F 29.92 in SSW 6.9 mph 8.1 mph 88% 0.00 in 21.00 W/m2
15:22 51.4 °F 48.0 °F 29.92 in South 11.5 mph 11.5 mph 88% 0.00 in 14.00 W/m2
15:27 51.5 °F 48.1 °F 29.92 in SSW 6.9 mph 10.3 mph 88% 0.00 in 12.00 W/m2
15:32 51.5 °F 48.1 °F 29.92 in SSW 8.1 mph 12.6 mph 88% 0.00 in 14.00 W/m2
15:37 51.5 °F 48.1 °F 29.92 in SSE 3.4 mph 12.6 mph 88% 0.00 in 23.00 W/m2
15:42 51.5 °F 48.1 °F 29.92 in SSW 6.9 mph 14.9 mph 88% 0.00 in 14.00 W/m2
15:47 51.5 °F 48.1 °F 29.92 in SW 6.9 mph 14.9 mph 88% 0.00 in 9.00 W/m2
15:53 51.5 °F 47.8 °F 29.92 in SSE 8.1 mph 11.5 mph 87% 0.00 in 9.00 W/m2
15:58 51.5 °F 47.8 °F 29.92 in SW 10.3 mph 13.8 mph 87% 0.00 in 9.00 W/m2
16:03 51.5 °F 47.5 °F 29.92 in SW 11.5 mph 16.1 mph 86% 0.00 in 5.00 W/m2
16:08 51.5 °F 47.5 °F 29.92 in SSW 12.6 mph 19.5 mph 86% 0.00 in 7.00 W/m2
16:13 51.6 °F 47.6 °F 29.92 in South 13.8 mph 16.1 mph 86% 0.00 in 0.00 W/m2
16:18 51.6 °F 47.2 °F 29.92 in South 5.8 mph 13.8 mph 85% 0.00 in 0.00 W/m2
16:23 51.5 °F 47.2 °F 29.92 in South 8.1 mph 17.2 mph 85% 0.00 in 0.00 W/m2
16:28 51.3 °F 47.0 °F 29.92 in South 9.2 mph 12.6 mph 85% 0.00 in 0.00 W/m2
16:34 51.2 °F 46.8 °F 29.92 in SSW 8.1 mph 18.4 mph 85% 0.00 in 0.00 W/m2
16:39 51.1 °F 46.8 °F 29.93 in SSW 8.1 mph 14.9 mph 85% 0.00 in 0.00 W/m2
16:44 51.0 °F 46.7 °F 29.92 in SSW 13.8 mph 14.9 mph 85% 0.00 in 0.00 W/m2
16:49 50.7 °F 46.4 °F 29.92 in SSW 10.3 mph 18.4 mph 85% 0.00 in 0.00 W/m2
16:54 50.6 °F 46.3 °F 29.92 in SSW 6.9 mph 19.5 mph 85% 0.00 in 0.00 W/m2
16:59 50.5 °F 46.2 °F 29.92 in South 11.5 mph 16.1 mph 85% 0.00 in 0.00 W/m2
17:04 50.6 °F 46.3 °F 29.92 in SSW 4.6 mph 13.8 mph 85% 0.00 in 0.00 W/m2
17:10 50.5 °F 46.2 °F 29.92 in SW 10.3 mph 16.1 mph 85% 0.00 in 0.00 W/m2
17:15 50.5 °F 46.2 °F 29.92 in SW 9.2 mph 11.5 mph 85% 0.00 in 0.00 W/m2
17:20 50.3 °F 46.3 °F 29.92 in SSW 8.1 mph 13.8 mph 86% 0.00 in 0.00 W/m2
Peotone Weather Data
Compliments of Weather Underground